STARLINK-5170 (54062 NORAD) Tracking and Keplerian Element Data

This shows tracking and keplerian element data for the satellite.

Feedback or suggestion? Click here.




ElementValue
Catalog54062
NameSTARLINK-5170
Epoch Orbit548
Epoch Day325.33334491
Epoch Year2022
RAAN352.6659
Inclination53.2171
Eccentricity0.0001352
Argument of Perigee111.3867
Mean Anonmoly72.5633
Mean Motion15.47275547
Decay Rate-0.01203702
L11 54062U 22136M 22325.33334491 -.01203702 00000+0 -25523-1 0 9999
L22 54062 53.2171 352.6659 0001352 111.3867 72.5633 15.47275547 5482



Live tracking and technical data element details for STARLINK-5170 (NORAD 54062). STARLINK-5170 can be tracked NOW for your location showing map with azimuth and elevation plus other details from your city location.







IsCatalogInMostPopularTable: catalog: 54062, numindb: 1
Update: records affected: 1



GetName: 54062 STARLINK-5170

Hit Count: updated at: Mon, 28 Nov 2022 22:04:55 GMT